Location: Bailleul
(50.3375°N, 2.8513°E)
Time: 11:12:23
(UTC+00:00)

Cosmos 1674 - Pass Details

Date: 16 June 2021
Orbit: 494 x 515 km, 82.5° (Epoch: 27 July)

Event Time Altitude Azimuth Distance (km) Brightness Sun altitude
Exits shadow 21:56:47 - 212° (SSW) 2,337 5.7 -12.2°
Reaches altitude 10° 21:58:26 10° 220° (SW) 1,699 5.1 -12.3°
Maximum altitude 22:01:50 34° 287° (WNW) 844 4.2 -12.5°
Drops below altitude 10° 22:05:16 10° 353° (N) 1,706 6.6 -12.8°
Sets 22:07:32 0° 3° (N) 2,593 7.5 -12.9°
